Location: Unspecified
(0.0000°N, 0.0000°E)
Time: 01:42:15
(UTC+00:00)

Explorer 11/Cluster Stage 4 - Pass Details

Date: 21 April 2026
Orbit: 463 x 1174 km, 28.8° (Epoch: 15 May)

Event Time Altitude Azimuth Distance (km) Brightness Sun altitude
Exits shadow 04:09:04 29° 129° (SE) 965 7.3 -26.8°
Drops below altitude 10° 04:12:10 10° 85° (E) 1,847 9.5 -26.0°
Sets 04:14:50 0° 75° (ENE) 2,857 10.8 -25.4°
